Rickenbacker, OH

6:18 AM EST on November 21, 2017 (GMT -0500)
Rickenbacker International

Weather History for KLCK - February, 2013

Change the Weather History Date:

Sunday, February 17, 2013

  Actual Average Record
Temperature  
Mean Temperature 20 °F -  
Max Temperature 27 °F 41 °F 67 °F (2011)
Min Temperature 14 °F 26 °F -11 °F (2015)
Degree Days  
Heating Degree Days 44    
Moisture  
Dew Point 8 °F    
Average Humidity 60    
Maximum Humidity 73    
Minimum Humidity 38    
Precipitation  
Precipitation 0.00 in - - ()
Sea Level Pressure  
Sea Level Pressure 30.17 in    
Wind  
Wind Speed 8 mph (WNW)    
Max Wind Speed 14 mph    
Max Gust Speed 16 mph    
Visibility 10 miles    
Events      
Averages and records for this station are not official NWS values.
T = Trace of Precipitation, MM = Missing Value Source: NWS Daily Summary

Daily Weather History Graph

Daily Weather History Graph

Search for Another Location

Airport or City:

Trip Planner

Search our weather history database for the weather conditions in past years. The results will help you decide how hot, cold, wet, or windy it might be!

Date:

Astronomy

Feb. 17, 2013 Rise Set
Actual Time 7:21 AM EST 6:10 PM EST
Civil Twilight 6:53 AM EST 6:38 PM EST
Nautical Twilight 6:22 AM EST 7:09 PM EST
Astronomical Twilight 5:51 AM EST 7:41 PM EST
Moon 11:14 AM EST (2/17) 1:04 AM EST (2/17)
Length of Visible Light 11h 44m
Length of Day
10h 49m
Waxing Crescent, 49% of the Moon is Illuminated
Feb 17
Waxing Crescent
Feb 17
First Quarter
Feb 25
Full
Mar 4
Last Quarter
Mar 11
New

Hourly Weather History & Observations

Time (EST) Temp. Windchill Dew Point Humidity Pressure Visibility Wind Dir Wind Speed Gust Speed Precip Events Conditions
12:15 AM 19.2 °F 7.7 °F 7.7 °F 61% 30.06 in 10.0 mi WNW 10.4 mph - N/A   Scattered Clouds
12:35 AM 18.5 °F 8.4 °F 7.7 °F 63% 30.07 in 10.0 mi WNW 8.1 mph - N/A   Clear
12:55 AM 17.8 °F 6.6 °F 6.8 °F 62% 30.07 in 10.0 mi WNW 9.2 mph - N/A   Clear
1:15 AM 17.6 °F 7.3 °F 6.1 °F 61% 30.08 in 10.0 mi WNW 8.1 mph - N/A   Scattered Clouds
1:35 AM 17.6 °F 7.3 °F 6.1 °F 61% 30.08 in 10.0 mi West 8.1 mph - N/A   Mostly Cloudy
1:55 AM 17.6 °F 5.7 °F 5.7 °F 60% 30.07 in 10.0 mi WNW 10.4 mph - N/A   Overcast
2:15 AM 17.6 °F 3.7 °F 5.5 °F 59% 30.07 in 10.0 mi WNW 13.8 mph - N/A   Overcast
2:35 AM 17.6 °F 5.7 °F 5.9 °F 60% 30.08 in 10.0 mi WNW 10.4 mph - N/A   Overcast
2:55 AM 17.6 °F 5.7 °F 6.3 °F 61% 30.08 in 10.0 mi WNW 10.4 mph - N/A   Overcast
3:15 AM 17.4 °F 7.1 °F 6.4 °F 62% 30.08 in 10.0 mi WNW 8.1 mph - N/A   Overcast
3:35 AM 17.4 °F 5.4 °F 6.8 °F 63% 30.08 in 10.0 mi WNW 10.4 mph - N/A   Overcast
3:55 AM 16.9 °F 7.4 °F 6.8 °F 65% 30.08 in 10.0 mi WNW 6.9 mph - N/A   Mostly Cloudy
4:15 AM 16.3 °F 5.7 °F 6.8 °F 66% 30.08 in 10.0 mi West 8.1 mph - N/A   Scattered Clouds
4:35 AM 15.8 °F 6.1 °F 6.8 °F 68% 30.08 in 10.0 mi West 6.9 mph - N/A   Clear
4:55 AM 15.6 °F 4.9 °F 6.8 °F 68% 30.09 in 10.0 mi West 8.1 mph - N/A   Clear
5:15 AM 15.3 °F 4.4 °F 6.8 °F 69% 30.09 in 10.0 mi WNW 8.1 mph - N/A   Clear
5:35 AM 15.1 °F 3.3 °F 6.8 °F 70% 30.10 in 10.0 mi West 9.2 mph - N/A   Clear
5:55 AM 14.9 °F 3.1 °F 6.8 °F 70% 30.11 in 10.0 mi West 9.2 mph - N/A   Clear
6:15 AM 14.9 °F 4.0 °F 6.8 °F 70% 30.11 in 10.0 mi WNW 8.1 mph - N/A   Clear
6:35 AM 14.7 °F 4.8 °F 7.2 °F 72% 30.13 in 10.0 mi WNW 6.9 mph - N/A   Clear
6:55 AM 14.9 °F 5.0 °F 7.5 °F 73% 30.13 in 10.0 mi WNW 6.9 mph - N/A   Scattered Clouds
7:15 AM 15.1 °F 5.2 °F 7.5 °F 72% 30.13 in 10.0 mi WNW 6.9 mph - N/A   Mostly Cloudy
7:35 AM 14.9 °F 3.1 °F 7.7 °F 73% 30.14 in 10.0 mi WNW 9.2 mph - N/A   Mostly Cloudy
7:55 AM 15.4 °F 3.8 °F 8.1 °F 73% 30.15 in 10.0 mi WNW 9.2 mph - N/A   Scattered Clouds
8:15 AM 16.7 °F 3.8 °F 8.6 °F 70% 30.15 in 10.0 mi WNW 11.5 mph 16.1 mph N/A   Scattered Clouds
8:35 AM 17.6 °F 5.7 °F 9.3 °F 70% 30.16 in 10.0 mi WNW 10.4 mph - N/A   Clear
8:55 AM 18.3 °F 5.2 °F 9.5 °F 68% 30.17 in 10.0 mi WNW 12.7 mph - N/A   Clear
9:15 AM 18.9 °F 6.5 °F 10.0 °F 69% 30.18 in 10.0 mi WNW 11.5 mph - N/A   Clear
9:35 AM 19.6 °F 8.9 °F 10.6 °F 68% 30.18 in 10.0 mi NW 9.2 mph - N/A   Scattered Clouds
9:55 AM 20.5 °F 8.6 °F 11.1 °F 67% 30.18 in 10.0 mi NW 11.5 mph - N/A   Scattered Clouds
10:15 AM 21.0 °F 12.4 °F 11.5 °F 67% 30.19 in 10.0 mi NW 6.9 mph - N/A   Mostly Cloudy
10:35 AM 21.4 °F 12.8 °F 11.8 °F 67% 30.20 in 10.0 mi NW 6.9 mph - N/A   Mostly Cloudy
10:55 AM 22.5 °F 13.2 °F 12.2 °F 65% 30.20 in 10.0 mi NNW 8.1 mph - N/A   Mostly Cloudy
11:15 AM 22.6 °F 13.4 °F 12.0 °F 64% 30.21 in 10.0 mi NW 8.1 mph - N/A   Mostly Cloudy
11:35 AM 23.0 °F 13.1 °F 11.5 °F 61% 30.21 in 10.0 mi WNW 9.2 mph - N/A   Mostly Cloudy
11:55 AM 23.4 °F 13.5 °F 11.5 °F 60% 30.21 in 10.0 mi WNW 9.2 mph - N/A   Mostly Cloudy
12:15 PM 24.4 °F 18.6 °F 11.7 °F 58% 30.21 in 10.0 mi NW 4.6 mph - N/A   Mostly Cloudy
12:35 PM 24.8 °F 15.3 °F 10.8 °F 55% 30.21 in 10.0 mi WNW 9.2 mph - N/A   Mostly Cloudy
12:55 PM 24.6 °F 15.8 °F 10.4 °F 55% 30.21 in 10.0 mi NW 8.1 mph - N/A   Scattered Clouds
1:15 PM 25.3 °F 16.7 °F 9.3 °F 51% 30.20 in 10.0 mi WNW 8.1 mph - N/A   Mostly Cloudy
1:55 PM 25.7 °F 15.1 °F 6.4 °F 44% 30.19 in 10.0 mi WNW 11.5 mph - N/A   Scattered Clouds
2:15 PM 26.1 °F 16.2 °F 6.3 °F 43% 30.19 in 10.0 mi WNW 10.4 mph 16.1 mph N/A   Scattered Clouds
2:35 PM 27.0 °F 18.0 °F 6.6 °F 42% 30.19 in 10.0 mi West 9.2 mph - N/A   Mostly Cloudy
2:55 PM 26.4 °F 18.0 °F 4.5 °F 39% 30.19 in 10.0 mi WNW 8.1 mph - N/A   Mostly Cloudy
3:15 PM 26.8 °F 18.5 °F 4.1 °F 38% 30.19 in 10.0 mi NW 8.1 mph - N/A   Mostly Cloudy
3:35 PM 27.0 °F 20.5 °F 5.0 °F 39% 30.19 in 10.0 mi WNW 5.8 mph - N/A   Mostly Cloudy
3:55 PM 27.0 °F 19.5 °F 5.2 °F 40% 30.20 in 10.0 mi WNW 6.9 mph - N/A   Mostly Cloudy
4:15 PM 26.8 °F 18.5 °F 6.1 °F 41% 30.20 in 10.0 mi WNW 8.1 mph - N/A   Mostly Cloudy
4:35 PM 26.8 °F 21.4 °F 5.9 °F 41% 30.20 in 10.0 mi NW 4.6 mph - N/A   Overcast
4:55 PM 27.3 °F 19.1 °F 6.4 °F 41% 30.20 in 10.0 mi WNW 8.1 mph - N/A   Overcast
5:15 PM 27.0 °F 18.7 °F 6.4 °F 42% 30.20 in 10.0 mi NW 8.1 mph - N/A   Overcast
5:35 PM 27.0 °F 19.5 °F 7.2 °F 43% 30.21 in 10.0 mi NW 6.9 mph - N/A   Mostly Cloudy
5:55 PM 26.6 °F 19.1 °F 7.3 °F 44% 30.21 in 10.0 mi NW 6.9 mph - N/A   Mostly Cloudy
6:15 PM 25.3 °F 18.5 °F 7.5 °F 47% 30.21 in 10.0 mi NW 5.8 mph - N/A   Scattered Clouds
6:35 PM 25.0 °F - 6.8 °F 46% 30.21 in 10.0 mi Calm Calm - N/A   Clear
6:55 PM 25.2 °F - 6.8 °F 46% 30.22 in 10.0 mi Calm Calm - N/A   Clear
7:15 PM 24.8 °F - 7.0 °F 47% 30.22 in 10.0 mi Calm Calm - N/A   Clear
7:35 PM 24.4 °F - 7.5 °F 49% 30.22 in 10.0 mi Calm Calm - N/A   Clear
7:55 PM 23.7 °F - 9.1 °F 54% 30.22 in 10.0 mi Calm Calm - N/A   Clear
8:15 PM 22.8 °F - 10.2 °F 59% 30.23 in 10.0 mi Calm Calm - N/A   Clear
8:35 PM 22.5 °F - 10.0 °F 59% 30.23 in 10.0 mi Calm Calm - N/A   Clear
8:55 PM 20.7 °F 15.8 °F 10.4 °F 65% 30.22 in 10.0 mi East 3.5 mph - N/A   Clear
9:15 PM 19.4 °F 12.8 °F 11.1 °F 70% 30.22 in 10.0 mi ESE 4.6 mph - N/A   Clear
9:35 PM 18.7 °F 11.9 °F 10.8 °F 71% 30.23 in 10.0 mi East 4.6 mph - N/A   Clear
9:55 PM 18.5 °F 11.7 °F 10.8 °F 72% 30.23 in 10.0 mi ESE 4.6 mph - N/A   Clear
10:15 PM 18.5 °F 13.3 °F 10.4 °F 71% 30.23 in 10.0 mi East 3.5 mph - N/A   Clear
10:35 PM 18.1 °F 11.3 °F 10.4 °F 72% 30.23 in 10.0 mi ESE 4.6 mph - N/A   Clear
10:55 PM 18.5 °F 10.4 °F 9.5 °F 68% 30.23 in 10.0 mi ESE 5.8 mph - N/A   Clear
11:15 PM 19.0 °F 11.1 °F 9.0 °F 65% 30.23 in 10.0 mi ESE 5.8 mph - N/A   Clear
11:35 PM 18.7 °F 11.9 °F 8.6 °F 65% 30.24 in 10.0 mi SE 4.6 mph - N/A   Clear
11:55 PM 18.5 °F 13.3 °F 8.8 °F 66% 30.24 in 10.0 mi ESE 3.5 mph - N/A   Clear